PEGASUS DEB, 25449

Orbit data source: Space-Track

PEGASUS DEB, 25449 is space debris in LEO originally from a launch on Thu, 19 May 1994 UTC launched from the Air Force Western Test Range (AFWTR). Debris objects in space refer to the collection of defunct objects orbiting the Earth. Examples of debris include non-operational satellites, rocket bodies, and fragments generated from explosions, collisions, or faulty payload assembly.

Loading next visibility...
Identifier
25449, 1994-029AED
Orbit
LEO
Country
Flag of USUS
Related business
Manufacturer
Unknown
Mission
Spacecraft
Bus & Motor
Unknown
Mass
Unknown
Launch date (UTC)
1994-05-19 (32 years ago)
Launch vehicle
Unknown
Launch site
Air Force Western Test Range (AFWTR)
Object type
Payload
Rocket body
Debris
Shape & HBR
Unknown shape, 0.1 m
Radar Cross Section
Medium (>0.1 m² and <1 m²)

Expand to show TLE details & history
Last TLE update: 14 hours ago

TLE from 14 hours ago
0 PEGASUS DEB
1 25449U 94029AED 26236.38241313  .00005782  00000-0  22184-2 0  9993
2 25449  82.0976 220.1305 0761852 115.2294 252.9772 13.32158744313003
Epoch: 2026-08-24T09:10Z
TLE epoch observation values (Epoch: 2026-08-24T09:10:40.494Z)
Latitude
-0.00011°
Longitude
109.79684°
Altitude
1,347.642 km
Speed
7.085 km/s
True Right ascension
14h 40m 31s
True Declination
0° 00' 00"
Sunlit
Object was in daylight at epoch
Visualization orbit readout
Latitude
Unknown
Longitude
Unknown
Altitude
Unknown
Speed
Unknown
Apparent Right ascension
Unknown
Apparent Declination
Unknown
Sunlit
N/A
Visualization observer readout
Local Sidereal Time
14:05:00
Azimuth
Unknown
Elevation
Unknown
Doppler factor
Unknown
Orbital elements
Apogee altitude
1,708.304 km
Perigee altitude
563.395 km
Semi-major axis
7,513.986 km
Eccentricity
0.07619
Inclination
82.0976°
RAAN
220.1305°
Arg. of periapsis
115.2294°
True anomaly
244.88306°
Mean anomaly
252.9772°
Eccentric anomaly
248.90465°
Mean motion
3.33225 °/min
Orbital period
108.04 mins
BSTAR
0.0022184
Loading maneuver chart data...
Computing Atmospheric mass density...

Documentation

Showing up to 5 results
|